• Join FlightAware (Why Join?)
  • Login
  • US Flag 
06:34AM EST


 

Airport Tracker/Info


-or-


 

Live Flight TrackerFlight Track Log ✈ N53FP ✈ 02-Jul-2013 ✈ KAZO - KEAU

Flight Track Log - Related Links

Times and Time Zones

All times are in EDT time to prevent confusion due to time zone crossing. See the N53FP flight status page for this flight to view local times or setup timezone preferences in your user account.

Time Position Orientation Groundspeed Altitude Reporting Facility
EDT Latitude Longitude Course Direction KTS MPH feet Rate Location/Type
02:50PM 42.3261 -85.5636 307° West 225 259 4,700  Level Chicago Center
02:51PM 42.3631 -85.6350 305° West 231 266 6,600 2,081 Climbing Chicago Center
02:52PM 42.4006 -85.7139 303° West 243 280 9,000 2,323 Climbing Chicago Center
02:53PM 42.4367 -85.7908 302° West 243 280 11,400 2,129 Climbing Chicago Center
02:54PM 42.4794 -85.8553 312° West 237 273 13,400 1,728 Climbing Chicago Center
02:55PM 42.4986 -86.1028 307° West  Level FlightAware Approximate
02:55PM 42.5333 -85.9178 319° Northwest 255 293 15,000  Level Chicago Center
02:56PM 42.5806 -86.0136 304° West 255 293 17,200 1,887 Climbing Chicago Center
02:57PM 42.6203 -86.0983 303° West 263 303 18,900 1,694 Climbing Chicago Center
02:58PM 42.6578 -86.1867 300° West 267 307 20,700 1,694 Climbing Chicago Center
02:59PM 42.6972 -86.2739 302° West 270 311 22,400 1,403 Climbing Chicago Center
03:00PM 42.7397 -86.3592 304° West 271 312 23,600 1,113 Climbing Chicago Center
03:01PM 42.8058 -86.4275 323° Northwest 299 344 24,700 1,113 Climbing Chicago Center
03:03PM 42.8714 -86.4964 322° Northwest 297 342 25,900 1,210 Climbing Chicago Center
03:04PM 42.9256 -86.6056 304° West 289 333 27,200 1,113 Climbing Chicago Center
03:05PM 42.9672 -86.7017 301° West 292 336 28,200 968 Climbing Chicago Center
03:06PM 43.0092 -86.7978 301° West 294 338 29,200 864 Climbing Chicago Center
03:07PM 43.0511 -86.8978 300° West 301 346 30,000 768 Climbing Chicago Center
03:08PM 43.0947 -86.9958 301° West 302 348 30,800 774 Climbing Chicago Center
03:09PM 43.1378 -87.0969 300° West 307 353 31,600 871 Climbing Chicago Center
03:10PM 43.1900 -87.2172 301° West 306 352 32,600 823 Climbing Chicago Center
03:11PM 43.2319 -87.3192 299° West 307 353 33,300 581 Climbing Chicago Center
03:12PM 43.2778 -87.4239 301° West 307 353 33,800 339 Climbing Chicago Center
03:13PM 43.3544 -87.5008 324° Northwest 343 395 34,000 97 Climbing Chicago Center
03:14PM 43.4294 -87.5817 322° Northwest 345 397 34,000  Level Chicago Center
03:15PM 43.5075 -87.6681 321° Northwest 357 411 34,000  Level Chicago Center
03:16PM 43.5997 -87.7700 321° Northwest 366 421 34,000  Level Chicago Center
03:17PM 43.6783 -87.8578 321° Northwest 365 420 34,000  Level Chicago Center
03:18PM 43.7569 -87.9458 321° Northwest 366 421 34,000  Level Chicago Center
03:19PM 43.8358 -88.0347 321° Northwest 366 421 34,000  Level Chicago Center
03:20PM 43.9261 -88.1364 321° Northwest 362 417 34,000  Level Chicago Center
03:21PM 44.0042 -88.2256 321° Northwest 364 419 34,000  Level Chicago Center
03:22PM 44.0806 -88.3133 320° Northwest 359 413 34,000  Level Chicago Center
03:23PM 44.1575 -88.4008 321° Northwest 358 412 34,000  Level Chicago Center
03:24PM 44.2342 -88.4875 321° Northwest 356 410 34,000  Level Chicago Center
03:25PM 44.2714 -88.5300 321° Northwest 354 407 34,000  Level Minneapolis Center
03:26PM 44.3597 -88.6311 321° Northwest 353 406 34,000  Level Minneapolis Center
03:27PM 44.4353 -88.7214 320° Northwest 357 411 34,000  Level Minneapolis Center
03:28PM 44.5233 -88.8222 321° Northwest 352 405 34,000  Level Minneapolis Center
03:29PM 44.5767 -88.9350 304° West 352 405 34,000  Level Minneapolis Center
03:30PM 44.5925 -89.0733 279° West 358 412 34,000  Level Minneapolis Center
03:31PM 44.6117 -89.2081 281° West 355 409 34,000 -242 Level Minneapolis Center
03:32PM 44.6283 -89.3472 280° West 359 413 33,500 -726 Descending Minneapolis Center
03:33PM 44.6467 -89.4906 280° West 367 422 32,500 -2,129 Descending Minneapolis Center
03:34PM 44.6661 -89.6558 279° West 369 425 29,100 -3,024 Descending Minneapolis Center
03:35PM 44.6828 -89.8008 279° West 373 429 26,300 -2,780 Descending Minneapolis Center
03:36PM 44.6986 -89.9425 279° West 372 428 23,400 -2,806 Descending Minneapolis Center
03:37PM 44.7158 -90.0789 280° West 361 415 20,500 -2,419 Descending Minneapolis Center
03:38PM 44.7317 -90.2319 278° West 360 414 18,400 -1,694 Descending Minneapolis Center
03:39PM 44.7467 -90.3736 279° West 352 405 17,000 -1,403 Descending Minneapolis Center
03:40PM 44.7619 -90.5117 279° West 344 396 15,500 -1,452 Descending Minneapolis Center
03:41PM 44.7778 -90.6450 280° West 336 387 14,000 -1,597 Descending Minneapolis Center
03:42PM 44.7925 -90.7728 279° West 334 384 12,200 -1,839 Descending Minneapolis Center
03:43PM 44.8047 -90.8969 278° West 326 375 10,200 -2,049 Descending Minneapolis Center
03:44PM 44.8164 -91.0203 278° West 303 349 8,000 -1,822 Descending Minneapolis Center
03:46PM 44.8278 -91.1339 278° West 284 327 6,100 -1,577 Descending Minneapolis Center
03:47PM 44.8397 -91.2533 278° West 260 299 4,400 -960 Descending Minneapolis Center
03:48PM 44.8464 -91.3444 276° West 258 297 4,100 -290 Descending Minneapolis Center
03:50PM 44.8500 -91.4833 270° West  Level FlightAware Approximate
03:57PM 44.8658 -91.4843 270° West  Level Estimated
03:58PM 44.8658 -91.4843 270° West  Level Estimated
03:59PM 44.8658 -91.4843 270° West  Level Estimated
04:00PM 44.8658 -91.4843 270° West  Level Estimated
04:01PM 44.8658 -91.4843 270° West  Level Estimated
04:02PM 44.8658 -91.4843 270° West  Level Estimated
04:03PM 44.8658 -91.4843 270° West  Level Estimated
04:04PM 44.8658 -91.4843 270° West  Level Estimated
04:05PM 44.8658 -91.4843 270° West  Level Estimated